This is the latest recevied weather packets stored in our database for station/object W3BRL. If no packets are shown the sender has not sent any weather packets the latest 10 day(s).
| Time | Temp. | Humidity | Pressure | Rain* | Wind** | Luminosity | Snow |
|---|---|---|---|---|---|---|---|
| 1777676755 | 8.33° C | 90% | 1008.8 hPa | 0 mm | - | 45 W/m² | - |
| 1777676453 | 8.33° C | 90% | 1008.9 hPa | 0 mm | - | 41 W/m² | - |
| 1777676150 | 8.33° C | 90% | 1008.9 hPa | 0 mm | - | 44 W/m² | - |
| 1777675846 | 8.33° C | 90% | 1008.8 hPa | 0 mm | - | 72 W/m² | - |
| 1777675544 | 8.33° C | 90% | 1008.9 hPa | 0 mm | - | 53 W/m² | - |
| 1777675241 | 8.89° C | 90% | 1008.9 hPa | 0 mm | - | 53 W/m² | - |
| 1777674937 | 8.89° C | 90% | 1009 hPa | 0 mm | - | 60 W/m² | - |
| 1777674633 | 8.33° C | 90% | 1009.1 hPa | 0 mm | - | 91 W/m² | - |
| 1777674334 | 8.33° C | 89% | 1009 hPa | 0 mm | - | 157 W/m² | - |
| 1777674028 | 8.33° C | 90% | 1009 hPa | 0 mm | - | 90 W/m² | - |
| 1777673723 | 8.33° C | 90% | 1009 hPa | 0 mm | - | 105 W/m² | - |
| 1777673421 | 8.33° C | 89% | 1009 hPa | 0 mm | - | 76 W/m² | - |
| 1777673119 | 8.33° C | 89% | 1009 hPa | 0 mm | - | 66 W/m² | - |
| 1777672815 | 8.33° C | 90% | 1009 hPa | 0 mm | - | 58 W/m² | - |
| 1777672511 | 7.78° C | 89% | 1009.2 hPa | 0 mm | - | 75 W/m² | - |
| 1777672207 | 8.33° C | 89% | 1009.1 hPa | 0 mm | - | 59 W/m² | - |
| 1777671903 | 8.33° C | 89% | 1009 hPa | 0 mm | - | 74 W/m² | - |
| 1777671598 | 8.33° C | 89% | 1009.2 hPa | 0 mm | - | 75 W/m² | - |
| 1777671295 | 7.78° C | 89% | 1009.3 hPa | 0 mm | - | 102 W/m² | - |
| 1777670990 | 7.78° C | 89% | 1009.3 hPa | 1.78 mm | - | 83 W/m² | - |
| 1777670687 | 7.78° C | 88% | 1009.5 hPa | 3.05 mm | - | 51 W/m² | - |
| 1777670384 | 7.78° C | 88% | 1009.6 hPa | 3.05 mm | - | 42 W/m² | - |
| 1777670082 | 7.78° C | 87% | 1009.3 hPa | 4.83 mm | - | 42 W/m² | - |
| 1777669779 | 7.78° C | 87% | 1009.5 hPa | 1.78 mm | - | 31 W/m² | - |
| 1777669476 | 7.78° C | 86% | 1009.7 hPa | 0 mm | - | 38 W/m² | - |
* Rain latest hour (hover to see other rain measurements)
** Current wind speed in m/s (hover to see current wind gust speed)